2016-01-01 00:02:59 r, 15.83m,0000000041Hz,0000011139c,0000000.024s, 010.3C,00002195
2016-01-01 00:13:00 r, 15.91m,0000000038Hz,0000011984c,0000000.026s, 010.6C,00002195
2016-01-01 00:23:02 r, 15.80m,0000000042Hz,0000010887c,0000000.024s, 010.6C,00002195
2016-01-01 00:32:59 r, 15.57m,0000000052Hz,0000008823c,0000000.019s, 010.6C,00002195
2016-01-01 00:42:59 r, 15.32m,0000000066Hz,0000007028c,0000000.015s, 010.6C,00002195
2016-01-01 00:53:02 r, 15.16m,0000000075Hz,0000006036c,0000000.013s, 010.6C,00002195
2016-01-01 01:02:59 r, 15.83m,0000000042Hz,0000011196c,0000000.024s, 010.9C,00002195
2016-01-01 01:13:02 r, 16.06m,0000000034Hz,0000013781c,0000000.030s, 010.9C,00002195
2016-01-01 01:23:00 r, 15.42m,0000000061Hz,0000007617c,0000000.017s, 011.2C,00002195
2016-01-01 01:32:59 r, 15.37m,0000000063Hz,0000007322c,0000000.016s, 011.2C,00002195
2016-01-01 01:43:02 r, 15.65m,0000000049Hz,0000009486c,0000000.021s, 011.6C,00002195
2016-01-01 01:53:00 r, 15.01m,0000000088Hz,0000005279c,0000000.011s, 011.6C,00002195
2016-01-01 02:02:59 r, 15.57m,0000000053Hz,0000008784c,0000000.019s, 011.9C,00002195
2016-01-01 02:13:00 r, 15.17m,0000000075Hz,0000006048c,0000000.013s, 011.9C,00002195
2016-01-01 02:23:00 r, 15.52m,0000000054Hz,0000008425c,0000000.018s, 012.2C,00002195
2016-01-01 02:32:59 r, 17.36m,0000000010Hz,0000046000c,0000000.100s, 012.5C,00002195
2016-01-01 02:43:00 r, 17.59m,0000000008Hz,0000056708c,0000000.123s, 012.5C,00002195
2016-01-01 02:52:59 r, 17.59m,0000000008Hz,0000056358c,0000000.122s, 012.5C,00002195
2016-01-01 03:02:59 r, 17.59m,0000000008Hz,0000056765c,0000000.123s, 012.2C,00002195
2016-01-01 03:13:02 r, 17.60m,0000000008Hz,0000057221c,0000000.124s, 012.2C,00002195
2016-01-01 03:23:00 r, 17.60m,0000000008Hz,0000056835c,0000000.123s, 012.2C,00002195
2016-01-01 03:32:59 r, 17.61m,0000000008Hz,0000057560c,0000000.125s, 012.2C,00002195
2016-01-01 03:43:02 r, 17.59m,0000000008Hz,0000056725c,0000000.123s, 011.9C,00002195
2016-01-01 03:53:00 r, 17.59m,0000000008Hz,0000056616c,0000000.123s, 011.9C,00002195
2016-01-01 04:02:59 r, 17.60m,0000000008Hz,0000057239c,0000000.124s, 011.9C,00002195
2016-01-01 04:12:59 r, 17.59m,0000000008Hz,0000056716c,0000000.123s, 011.6C,00002195
2016-01-01 04:23:01 r, 17.60m,0000000008Hz,0000057223c,0000000.124s, 011.6C,00002195
2016-01-01 04:32:59 r, 17.60m,0000000008Hz,0000057282c,0000000.124s, 011.9C,00002195
2016-01-01 04:42:59 r, 17.60m,0000000008Hz,0000056909c,0000000.124s, 011.9C,00002195
2016-01-01 04:53:02 r, 17.59m,0000000008Hz,0000056724c,0000000.123s, 011.9C,00002195
2016-01-01 05:02:59 r, 17.59m,0000000008Hz,0000056723c,0000000.123s, 011.9C,00002195
2016-01-01 05:13:01 r, 17.59m,0000000008Hz,0000056680c,0000000.123s, 011.9C,00002195
2016-01-01 05:22:59 r, 17.59m,0000000008Hz,0000056567c,0000000.123s, 011.9C,00002195
2016-01-01 05:32:59 r, 17.59m,0000000008Hz,0000056499c,0000000.123s, 011.9C,00002195
2016-01-01 05:42:59 r, 17.58m,0000000008Hz,0000056234c,0000000.122s, 011.9C,00002195
2016-01-01 05:53:00 r, 17.57m,0000000008Hz,0000055693c,0000000.121s, 011.9C,00002195
2016-01-01 06:02:59 r, 17.59m,0000000008Hz,0000056441c,0000000.122s, 011.9C,00002195
2016-01-01 06:12:59 r, 17.58m,0000000008Hz,0000056019c,0000000.122s, 011.9C,00002195
2016-01-01 06:22:59 r, 17.58m,0000000008Hz,0000056305c,0000000.122s, 011.9C,00002195
2016-01-01 06:32:59 r, 17.58m,0000000008Hz,0000055956c,0000000.121s, 011.9C,00002195
2016-01-01 06:42:59 r, 17.58m,0000000008Hz,0000055955c,0000000.121s, 011.9C,00002195
2016-01-01 06:53:00 r, 17.57m,0000000008Hz,0000055702c,0000000.121s, 011.9C,00002195
2016-01-01 07:02:59 r, 17.51m,0000000009Hz,0000052983c,0000000.115s, 011.6C,00002195
2016-01-01 07:12:59 r, 17.35m,0000000010Hz,0000045095c,0000000.098s, 011.6C,00002195
2016-01-01 07:23:02 r, 16.83m,0000000016Hz,0000028079c,0000000.061s, 011.6C,00002195
2016-01-01 07:32:59 r, 15.76m,0000000043Hz,0000010555c,0000000.023s, 011.6C,00002195
2016-01-01 07:42:59 r, 14.16m,0000000192Hz,0000000000c,0000000.000s, 011.2C,00002195
2016-01-01 07:52:59 r, 12.32m,0000001055Hz,0000000000c,0000000.000s, 011.2C,00002195
2016-01-01 08:02:59 r, 10.46m,0000005826Hz,0000000000c,0000000.000s, 011.2C,00002195
2016-01-01 08:13:02 r, 08.88m,0000025068Hz,0000000000c,0000000.000s, 010.9C,00002195
2016-01-01 08:23:00 r, 07.76m,0000070594Hz,0000000000c,0000000.000s, 010.9C,00002195
2016-01-01 08:32:59 r, 06.98m,0000144022Hz,0000000000c,0000000.000s, 011.2C,00002195
2016-01-01 08:43:00 r, 06.44m,0000236569Hz,0000000000c,0000000.000s, 010.9C,00002195
2016-01-01 08:53:01 r, 06.07m,0000335092Hz,0000000000c,0000000.000s, 010.9C,00002195
2016-01-01 09:02:59 r, 00.00m,0000432547Hz,0000000000c,0000000.000s, 011.2C,00002195
2016-01-01 09:12:59 r, 00.00m,0000520923Hz,0000000000c,0000000.000s, 011.2C,00002195
2016-01-01 09:22:59 r, 00.00m,0000562046Hz,0000000000c,0000000.000s, 011.2C,00002195
2016-01-01 09:32:59 r, 00.00m,0000562069Hz,0000000000c,0000000.000s, 011.6C,00002195
2016-01-01 09:43:00 r, 00.00m,0000562118Hz,0000000000c,0000000.000s, 012.2C,00002195
2016-01-01 09:52:59 r, 00.00m,0000562281Hz,0000000000c,0000000.000s, 012.8C,00002195
2016-01-01 10:02:59 r, 00.00m,0000562530Hz,0000000000c,0000000.000s, 013.8C,00002195
2016-01-01 10:12:59 r, 00.00m,0000562589Hz,0000000000c,0000000.000s, 014.5C,00002195
2016-01-01 10:23:00 r, 00.00m,0000562474Hz,0000000000c,0000000.000s, 014.8C,00002195
2016-01-01 10:32:59 r, 00.00m,0000562666Hz,0000000000c,0000000.000s, 015.1C,00002195
2016-01-01 10:42:59 r, 00.00m,0000562706Hz,0000000000c,0000000.000s, 015.7C,00002195
2016-01-01 10:53:00 r, 00.00m,0000562772Hz,0000000000c,0000000.000s, 015.7C,00002195
2016-01-01 11:03:00 r, 00.00m,0000562796Hz,0000000000c,0000000.000s, 016.1C,00002195
2016-01-01 11:12:59 r, 00.00m,0000562696Hz,0000000000c,0000000.000s, 016.1C,00002195
2016-01-01 11:23:02 r, 00.00m,0000562819Hz,0000000000c,0000000.000s, 016.4C,00002195
2016-01-01 11:33:00 r, 00.00m,0000562820Hz,0000000000c,0000000.000s, 016.4C,00002195
2016-01-01 11:42:59 r, 00.00m,0000562840Hz,0000000000c,0000000.000s, 016.4C,00002195
2016-01-01 11:53:02 r, 00.00m,0000562847Hz,0000000000c,0000000.000s, 016.4C,00002195
2016-01-01 12:03:00 r, 00.00m,0000562724Hz,0000000000c,0000000.000s, 016.4C,00002195
2016-01-01 12:12:59 r, 00.00m,0000562899Hz,0000000000c,0000000.000s, 016.4C,00002195
2016-01-01 12:23:02 r, 00.00m,0000562924Hz,0000000000c,0000000.000s, 017.0C,00002195
2016-01-01 12:33:00 r, 00.00m,0000562965Hz,0000000000c,0000000.000s, 017.0C,00002195
2016-01-01 12:42:59 r, 00.00m,0000562914Hz,0000000000c,0000000.000s, 017.0C,00002195
2016-01-01 12:53:01 r, 00.00m,0000562983Hz,0000000000c,0000000.000s, 017.4C,00002195
2016-01-01 13:03:00 r, 00.00m,0000563033Hz,0000000000c,0000000.000s, 017.4C,00002195
2016-01-01 13:12:59 r, 00.00m,0000563050Hz,0000000000c,0000000.000s, 017.4C,00002195
2016-01-01 13:23:00 r, 00.00m,0000562966Hz,0000000000c,0000000.000s, 017.7C,00002195
2016-01-01 13:33:02 r, 00.00m,0000562946Hz,0000000000c,0000000.000s, 017.7C,00002195
2016-01-01 13:42:59 r, 00.00m,0000562907Hz,0000000000c,0000000.000s, 017.7C,00002195
2016-01-01 13:52:59 r, 00.00m,0000562953Hz,0000000000c,0000000.000s, 017.4C,00002195
2016-01-01 14:03:00 r, 00.00m,0000562816Hz,0000000000c,0000000.000s, 016.7C,00002195
2016-01-01 14:12:59 r, 00.00m,0000562697Hz,0000000000c,0000000.000s, 015.7C,00002195
2016-01-01 14:23:02 r, 00.00m,0000562610Hz,0000000000c,0000000.000s, 015.1C,00002195
2016-01-01 14:33:00 r, 00.00m,0000562658Hz,0000000000c,0000000.000s, 015.1C,00002195
2016-01-01 14:42:59 r, 00.00m,0000562650Hz,0000000000c,0000000.000s, 015.1C,00002195
2016-01-01 14:53:01 r, 00.00m,0000562584Hz,0000000000c,0000000.000s, 014.8C,00002195
2016-01-01 15:02:59 r, 00.00m,0000562471Hz,0000000000c,0000000.000s, 014.5C,00002195
2016-01-01 15:12:59 r, 00.00m,0000562488Hz,0000000000c,0000000.000s, 014.1C,00002195
2016-01-01 15:22:59 r, 00.00m,0000562484Hz,0000000000c,0000000.000s, 014.1C,00002195
2016-01-01 15:32:59 r, 00.00m,0000562495Hz,0000000000c,0000000.000s, 014.1C,00002195
2016-01-01 15:42:59 r, 00.00m,0000562435Hz,0000000000c,0000000.000s, 014.1C,00002195
2016-01-01 15:53:02 r, 00.00m,0000497643Hz,0000000000c,0000000.000s, 014.1C,00002195
2016-01-01 16:03:00 r, 00.00m,0000407872Hz,0000000000c,0000000.000s, 014.1C,00002195
2016-01-01 16:12:59 r, 06.14m,0000313041Hz,0000000000c,0000000.000s, 013.8C,00002195
2016-01-01 16:23:00 r, 06.53m,0000217340Hz,0000000000c,0000000.000s, 013.8C,00002195
2016-01-01 16:33:01 r, 07.10m,0000128983Hz,0000000000c,0000000.000s, 013.8C,00002195
2016-01-01 16:42:59 r, 07.92m,0000060516Hz,0000000000c,0000000.000s, 013.5C,00002195
2016-01-01 16:52:59 r, 09.10m,0000020449Hz,0000000000c,0000000.000s, 013.2C,00002195
2016-01-01 17:03:01 r, 10.70m,0000004691Hz,0000000000c,0000000.000s, 012.8C,00002195
2016-01-01 17:12:59 r, 12.57m,0000000837Hz,0000000000c,0000000.000s, 012.8C,00002195
2016-01-01 17:22:59 r, 14.43m,0000000151Hz,0000000000c,0000000.000s, 012.5C,00002195
2016-01-01 17:33:02 r, 15.96m,0000000037Hz,0000012583c,0000000.027s, 012.5C,00002195
2016-01-01 17:42:59 r, 16.96m,0000000015Hz,0000031489c,0000000.068s, 012.2C,00002195
2016-01-01 17:53:01 r, 17.41m,0000000010Hz,0000048101c,0000000.104s, 011.9C,00002195
2016-01-01 18:03:00 r, 17.58m,0000000009Hz,0000056085c,0000000.122s, 011.9C,00002195
2016-01-01 18:12:59 r, 17.63m,0000000007Hz,0000058574c,0000000.127s, 011.9C,00002195
2016-01-01 18:23:02 r, 17.63m,0000000008Hz,0000058673c,0000000.127s, 011.6C,00002195
2016-01-01 18:32:59 r, 17.64m,0000000007Hz,0000059244c,0000000.129s, 011.6C,00002195
2016-01-01 18:43:00 r, 17.64m,0000000007Hz,0000059382c,0000000.129s, 011.6C,00002195
2016-01-01 18:53:00 r, 17.63m,0000000007Hz,0000058841c,0000000.128s, 011.2C,00002195
2016-01-01 19:02:59 r, 17.65m,0000000008Hz,0000059528c,0000000.129s, 011.2C,00002195
2016-01-01 19:12:59 r, 17.64m,0000000008Hz,0000058952c,0000000.128s, 011.2C,00002195
2016-01-01 19:22:59 r, 17.63m,0000000008Hz,0000058621c,0000000.127s, 011.2C,00002195
2016-01-01 19:33:00 r, 17.61m,0000000008Hz,0000057420c,0000000.125s, 011.2C,00002195
2016-01-01 19:42:59 r, 17.63m,0000000008Hz,0000058836c,0000000.128s, 011.2C,00002195
2016-01-01 19:53:00 r, 17.62m,0000000007Hz,0000058012c,0000000.126s, 011.2C,00002195
2016-01-01 20:03:02 r, 17.64m,0000000008Hz,0000059202c,0000000.128s, 011.2C,00002195
2016-01-01 20:12:59 r, 17.64m,0000000008Hz,0000059093c,0000000.128s, 011.2C,00002195
2016-01-01 20:22:59 r, 17.65m,0000000008Hz,0000059550c,0000000.129s, 011.2C,00002195
2016-01-01 20:33:00 r, 17.65m,0000000008Hz,0000059659c,0000000.129s, 011.2C,00002195
2016-01-01 20:43:01 r, 17.65m,0000000007Hz,0000059594c,0000000.129s, 011.2C,00002195
2016-01-01 20:52:59 r, 17.66m,0000000008Hz,0000060448c,0000000.131s, 011.2C,00002195
2016-01-01 21:03:01 r, 17.66m,0000000007Hz,0000060553c,0000000.131s, 011.2C,00002195
2016-01-01 21:12:59 r, 17.67m,0000000007Hz,0000060772c,0000000.132s, 011.2C,00002195
2016-01-01 21:23:00 r, 17.63m,0000000008Hz,0000058583c,0000000.127s, 011.2C,00002195
2016-01-01 21:33:01 r, 17.66m,0000000008Hz,0000060496c,0000000.131s, 011.2C,00002195
2016-01-01 21:42:59 r, 17.61m,0000000008Hz,0000057567c,0000000.125s, 011.2C,00002195
2016-01-01 21:53:01 r, 17.42m,0000000010Hz,0000048465c,0000000.105s, 011.2C,00002195
2016-01-01 22:02:59 r, 17.59m,0000000009Hz,0000056586c,0000000.123s, 011.2C,00002195
2016-01-01 22:12:59 r, 17.68m,0000000007Hz,0000061559c,0000000.134s, 011.2C,00002195
2016-01-01 22:23:00 r, 17.69m,0000000008Hz,0000062383c,0000000.135s, 011.2C,00002195
2016-01-01 22:33:02 r, 17.69m,0000000007Hz,0000061714c,0000000.134s, 010.9C,00002195
2016-01-01 22:42:59 r, 17.71m,0000000007Hz,0000063138c,0000000.137s, 010.9C,00002195
2016-01-01 22:53:02 r, 17.71m,0000000007Hz,0000063110c,0000000.137s, 010.6C,00002195
2016-01-01 23:03:00 r, 17.69m,0000000007Hz,0000062425c,0000000.135s, 010.6C,00002195
2016-01-01 23:12:59 r, 17.54m,0000000009Hz,0000053985c,0000000.117s, 010.6C,00002195
2016-01-01 23:22:59 r, 17.61m,0000000008Hz,0000057716c,0000000.125s, 010.6C,00002195
2016-01-01 23:33:01 r, 17.71m,0000000007Hz,0000063479c,0000000.138s, 010.3C,00002195
2016-01-01 23:42:59 r, 17.71m,0000000008Hz,0000063438c,0000000.138s, 010.3C,00002195
2016-01-01 23:52:59 r, 17.73m,0000000007Hz,0000064137c,0000000.139s, 010.3C,00002195
